Location: Quartzsite
(33.6639°N, 114.2299°W)
Time: 02:45:00
(UTC-07:00)

Hubble Space Telescope - Visible Passes

Search period start: 21 September 2018 00:00
Search period end: 01 October 2018 00:00
Orbit: 537 x 541 km, 28.5° (Epoch: 20 September)

Date Brightness Start Highest point End Pass type
(mag) Time Alt. Az. Time Alt. Az. Time Alt. Az.
21 Sep 1.7 20:16:04 10° WSW 20:19:41 37° SSW 20:19:41 37° SSW visible
22 Sep 1.7 20:05:41 10° WSW 20:09:27 34° S 20:09:50 33° S visible
23 Sep 1.9 19:55:20 10° WSW 19:59:00 31° S 20:00:00 27° SSE visible
24 Sep 2.2 19:45:01 10° WSW 19:48:33 27° SSW 19:50:11 21° SSE visible
25 Sep 2.5 19:34:45 10° WSW 19:38:06 24° SSW 19:40:26 15° SSE visible
26 Sep 2.7 19:24:32 10° WSW 19:27:38 21° SSW 19:30:43 10° SSE visible
27 Sep 3.0 19:14:24 10° WSW 19:17:09 17° SSW 19:19:54 10° SSE visible
28 Sep 3.3 19:04:26 10° SW 19:06:39 14° SSW 19:08:54 10° S visible
29 Sep 3.5 18:54:49 10° SW 18:56:10 11° SSW 18:57:31 10° S visible
